TimeMDT,TemperatureF,Dew PointF,Humidity,Sea Level PressureIn,VisibilityMPH,Wind Direction,Wind SpeedMPH,Gust SpeedMPH,PrecipitationIn,Events,Conditions,WindDirDegrees,DateUTC
12:53 AM,60.1,51.1,72,30.01,10.0,South,5.8,-,N/A,,Clear,180,2013-08-09 06:53:00
1:53 AM,57.0,51.1,81,30.01,10.0,SSE,3.5,-,N/A,,Clear,150,2013-08-09 07:53:00
2:53 AM,53.1,48.9,86,30.02,10.0,ESE,5.8,-,N/A,,Clear,110,2013-08-09 08:53:00
3:53 AM,53.1,48.9,86,30.02,10.0,Calm,Calm,-,N/A,,Clear,0,2013-08-09 09:53:00
4:53 AM,52.0,48.0,86,30.02,10.0,SE,4.6,-,N/A,,Clear,140,2013-08-09 10:53:00
5:53 AM,50.0,46.9,89,30.04,10.0,ESE,4.6,-,N/A,,Clear,110,2013-08-09 11:53:00
6:53 AM,53.1,48.0,83,30.04,10.0,SSE,3.5,-,N/A,,Clear,150,2013-08-09 12:53:00
7:53 AM,57.0,48.9,74,30.04,10.0,Calm,Calm,-,N/A,,Clear,0,2013-08-09 13:53:00
8:53 AM,59.0,48.9,69,30.05,10.0,NW,3.5,-,N/A,,Clear,320,2013-08-09 14:53:00
9:53 AM,64.9,48.9,56,30.04,10.0,Calm,Calm,-,N/A,,Partly Cloudy,0,2013-08-09 15:53:00
10:53 AM,68.0,46.9,47,30.03,10.0,Calm,Calm,-,N/A,,Clear,0,2013-08-09 16:53:00
11:53 AM,71.1,45.0,39,30.03,10.0,SSE,9.2,16.1,N/A,,Clear,160,2013-08-09 17:53:00
12:53 PM,72.0,45.0,38,30.01,10.0,Variable,5.8,-,N/A,,Clear,0,2013-08-09 18:53:00
1:53 PM,73.9,45.0,35,30.00,10.0,SSE,11.5,-,N/A,,Partly Cloudy,150,2013-08-09 19:53:00
2:53 PM,75.0,46.0,36,29.99,10.0,South,5.8,16.1,N/A,,Clear,170,2013-08-09 20:53:00
3:53 PM,75.9,44.1,32,29.97,10.0,South,8.1,-,N/A,,Partly Cloudy,180,2013-08-09 21:53:00
4:53 PM,75.9,44.1,32,29.96,10.0,ESE,9.2,-,N/A,,Clear,120,2013-08-09 22:53:00
5:00 PM,75.2,44.6,34,30.11,10.0,ESE,9.2,-,N/A,Thunderstorm,Clear,120,2013-08-09 23:00:00
5:38 PM,73.4,44.6,36,30.12,10.0,ESE,12.7,18.4,N/A,,Clear,110,2013-08-09 23:38:00
5:53 PM,73.0,46.0,38,29.99,10.0,SE,16.1,-,N/A,Thunderstorm,Clear,140,2013-08-09 23:53:00
6:08 PM,73.4,46.4,38,30.14,10.0,SE,17.3,-,N/A,,Clear,140,2013-08-10 00:08:00
6:41 PM,73.4,48.2,41,30.13,10.0,SE,13.8,-,N/A,Thunderstorm,Clear,140,2013-08-10 00:41:00
6:53 PM,72.0,46.9,41,30.00,10.0,SE,9.2,-,N/A,,Clear,130,2013-08-10 00:53:00
7:18 PM,71.6,48.2,43,30.16,10.0,SSW,8.1,-,N/A,Thunderstorm,Mostly Cloudy,200,2013-08-10 01:18:00
7:35 PM,66.2,53.6,64,30.16,4.0,SE,11.5,-,0.04,Rain,Rain,130,2013-08-10 01:35:00
7:53 PM,66.0,51.1,59,30.00,10.0,East,9.2,-,0.06,Rain,Light Rain,80,2013-08-10 01:53:00
8:53 PM,66.0,48.0,52,30.01,10.0,Variable,6.9,-,N/A,,Clear,0,2013-08-10 02:53:00
9:53 PM,62.1,48.0,60,30.04,10.0,North,6.9,20.7,N/A,,Clear,350,2013-08-10 03:53:00
10:53 PM,60.1,50.0,69,30.05,10.0,Calm,Calm,-,N/A,,Clear,0,2013-08-10 04:53:00
11:53 PM,59.0,48.9,69,30.04,10.0,Calm,Calm,-,N/A,,Clear,0,2013-08-10 05:53:00